User: anonymous   Login
Location: Oshawa
(43.9000°N, 78.8670°W)
Time: 05:12:13
(UTC-04:00)
Language:

Cosmos 2333 Rocket - Orbit

View from above orbital plane
View from above orbital plane
View from above satellite
View from above satellite

Ground track
Ground track

The orbit data is extracted from the following two-line orbital elements,

1 24298U 96051B   16204.48950602  .00000091  00000-0  75378-4 0  9997
2 24298  70.8376  37.0032 0017455 302.9286  57.0155 14.12414988 25265
Epoch (UTC): 22 July 2016 11:44:53
Eccentricity: 0.0017455
inclination: 70.8376°
perigee height: 838 km
apogee height: 864 km
right ascension of ascending node: 37.0032°
argument of perigee: 302.9286°
revolutions per day: 14.12414988
mean anomaly at epoch: 57.0155°
orbit number at epoch: 2526

The dashed part of the orbit path shows where the satellite is in the earth's shadow,  

DLR